Showing default

ORBITER SN3, 56960

Orbit data source: Space-Track

ORBITER SN3, 56960 is a payload satellite owned by Launcher Inc (US) in SSO that was launched on Mon, 12 Jun 2023 UTC via an FALCON 9 launch vehicle from the Air Force Western Test Range (AFWTR). Payload-class satellites include a variety of spacecraft equipped with specific instruments for various scientific and technological missions. These include communications satellites like Starlink; space stations such as the ISS; scientific satellites like the Hubble; Earth observation satellites from companies like Planet Labs, Umbra, and HawkEye 360; GPS; miniature CubeSats for education and research; and military/defense satellites.

Loading next visibility...
Identifier
56960, 2023-084AE
Orbit
SSO
Country
Flag of USUS
Related business
Manufacturer
Launcher Inc
Mission
Operational Commercial Technology
Bus & Motor
LAORB1, AOCS
Mass
223 kg wet, ~150 kg dry
Launch date (UTC)
2023-06-12 (3 years ago)
Launch vehicle
FALCON 9
Launch site
Air Force Western Test Range (AFWTR)
Object type
Payload
Rocket body
Debris
Shape & HBR
Oct Cyl, 0.5 m
Radar Cross Section
0.583 m², Medium (>0.1 m² and < 1m²)

Expand to show TLE details & history
Last TLE update: 6 hours ago

TLE from 6 hours ago
0 ORBITER SN3
1 56960U 23084AE  25351.60461463  .00007673  00000-0  25778-3 0  9994
2 56960  97.6016 122.1139 0007458 255.4639 104.5775 15.31111935139679
Epoch: 2025-12-17T14:30Z
TLE epoch observation values (Epoch: 2025-12-17T14:30:38.704Z)
Latitude
0.00005°
Longitude
177.98054°
Altitude
476.883 km
Speed
7.627 km/s
True Right ascension
08h 08m 27s
True Declination
0° 00' 00"
Sunlit
Object was in full shadow at epoch
Visualization orbit readout
Latitude
Unknown
Longitude
Unknown
Altitude
Unknown
Speed
Unknown
Apparent Right ascension
Unknown
Apparent Declination
Unknown
Sunlit
N/A
Visualization observer readout
Local Sidereal Time
19:14:19
Azimuth
Unknown
Elevation
Unknown
Doppler factor
Unknown
Orbital elements
Apogee altitude
474.56 km
Perigee altitude
464.346 km
Semi-major axis
6,847.59 km
Eccentricity
0.00075
Inclination
97.6016°
RAAN
122.1139°
Arg. of periapsis
255.4639°
True anomaly
104.66019°
Mean anomaly
104.5775°
Eccentric anomaly
104.61885°
Mean motion
3.83033 °/min
Orbital period
93.99 mins
BSTAR
0.00025778
Loading maneuver chart data...
Computing Atmospheric mass density...

Documentation

Showing up to 5 results
|